Garrison, ND

10:39 AM CST on November 20, 2017 (GMT -0600)
Garrison

Weather History for KN60 - December, 2011

Change the Weather History Date:

Friday, December 16, 2011

  Actual Average Record
Temperature  
Mean Temperature 22 °F -  
Max Temperature 24 °F - 44 °F (1997)
Min Temperature 19 °F - -18 °F (2008)
Degree Days  
Heating Degree Days 43    
Month to date heating degree days 724  
Cooling Degree Days 0    
Moisture  
Dew Point 19 °F    
Average Humidity 87    
Maximum Humidity 92    
Minimum Humidity 81    
Precipitation  
Precipitation 0.03 in - 0.06 in (2013)
Month to date precipitation 0.21  
Year to date precipitation 17.45  
Sea Level Pressure  
Sea Level Pressure 30.32 in    
Wind  
Wind Speed 3 mph (SSW)    
Max Wind Speed 9 mph    
Max Gust Speed 12 mph    
T = Trace of Precipitation, MM = Missing Value Source: NWS Daily Summary

Daily Weather History Graph

Daily Weather History Graph

Search for Another Location

Airport or City:

Trip Planner

Search our weather history database for the weather conditions in past years. The results will help you decide how hot, cold, wet, or windy it might be!

Date:

Astronomy

Dec. 16, 2011 Rise Set
Actual Time 8:28 AM CST 4:54 PM CST
Civil Twilight 7:51 AM CST 5:30 PM CST
Nautical Twilight 7:12 AM CST 6:09 PM CST
Astronomical Twilight 6:35 AM CST 6:47 PM CST
Moon 11:55 PM CST (12/16) 11:51 AM CST (12/16)
Length of Visible Light 9h 38m
Length of Day
8h 26m
Waning Gibbous, 64% of the Moon is Illuminated
Dec 16
Waning Gibbous
Dec 17
Last Quarter
Dec 24
New
Jan 1
First Quarter
Jan 9
Full

Hourly Weather History & Observations

Time (CST) Temp. Windchill Dew Point Humidity Pressure Visibility Wind Dir Wind Speed Gust Speed Precip Events Conditions
12:52 AM 21.0 °F 11.4 °F 18.0 °F 88% 30.33 in - SSE 8.1 mph - 0.01 in   Unknown
1:52 AM 21.0 °F 12.4 °F 18.0 °F 88% 30.32 in - SE 6.9 mph - 0.01 in   Unknown
2:52 AM 21.9 °F 14.5 °F 19.0 °F 89% 30.32 in - SSE 5.8 mph - N/A   Unknown
3:52 AM 21.0 °F 13.4 °F 18.0 °F 88% 30.32 in - SE 5.8 mph - N/A   Unknown
4:52 AM 21.0 °F - 19.0 °F 92% 30.32 in - Calm Calm - 0.01 in   Unknown
5:52 AM 21.0 °F 16.2 °F 19.0 °F 92% 30.32 in - ESE 3.5 mph - N/A   Unknown
6:52 AM 21.0 °F - 18.0 °F 88% 30.34 in - Calm Calm - N/A   Unknown
7:52 AM 19.0 °F 13.9 °F 16.0 °F 88% 30.34 in - ENE 3.5 mph - N/A   Unknown
8:52 AM 19.9 °F - 17.1 °F 89% 30.35 in - Calm Calm - N/A   Unknown
9:52 AM 21.0 °F - 17.1 °F 85% 30.37 in - Calm Calm - N/A   Unknown
10:52 AM 21.0 °F - 18.0 °F 88% 30.39 in - Calm Calm - N/A   Unknown
11:52 AM 21.9 °F 15.7 °F 18.0 °F 85% 30.38 in - NW 4.6 mph - N/A   Unknown
12:52 PM 19.9 °F 13.4 °F 17.1 °F 89% 30.36 in - North 4.6 mph - N/A   Unknown
1:52 PM 21.9 °F - 19.0 °F 89% 30.34 in - Calm Calm - N/A   Unknown
2:52 PM 23.0 °F - 19.0 °F 85% 30.33 in - Calm Calm - N/A   Unknown
3:52 PM 24.1 °F 19.7 °F 19.9 °F 84% 30.33 in - West 3.5 mph - N/A   Unknown
4:52 PM 24.1 °F 19.7 °F 19.9 °F 84% 30.32 in - WSW 3.5 mph - N/A   Unknown
5:52 PM 23.0 °F 18.4 °F 19.9 °F 88% 30.31 in - WSW 3.5 mph - N/A   Unknown
6:52 PM 25.0 °F 15.5 °F 21.0 °F 85% 30.30 in - SW 9.2 mph - N/A   Unknown
7:52 PM 26.1 °F 15.0 °F 21.0 °F 81% 30.27 in - WSW 12.7 mph - N/A   Unknown
8:52 PM 26.1 °F 16.2 °F 21.9 °F 84% 30.26 in - WSW 10.4 mph - N/A   Unknown
9:52 PM 21.9 °F 13.4 °F 19.0 °F 89% 30.24 in - SW 6.9 mph - N/A   Unknown
10:52 PM 19.9 °F 12.1 °F 18.0 °F 92% 30.22 in - SSW 5.8 mph - N/A   Unknown
11:52 PM 24.1 °F 15.2 °F 21.0 °F 88% 30.20 in - SW 8.1 mph - N/A   Unknown